User: anonymous   Login
Location: Ash Swamp
(41.5170°N, 74.6157°W)
Time: 17:42:27
(UTC+00:00)
Language:

Cosmos 1536 - Orbit

View from above orbital plane
View from above orbital plane
View from above satellite
View from above satellite

Ground track
Ground track

The orbit data is extracted from the following two-line orbital elements,

1 14699U 84013A   20270.91191065 +.00000039 +00000-0 +72013-6 0  9999
2 14699 082.5242 249.3826 0011124 289.7711 070.2316 15.05638658972129
Epoch (UTC): 26 September 2020 21:53:09
Eccentricity: 0.0011124
inclination: 82.5242°
perigee height: 542 km
apogee height: 557 km
right ascension of ascending node: 249.3826°
argument of perigee: 289.7711°
revolutions per day: 15.05638658
mean anomaly at epoch: 70.2316°
orbit number at epoch: 97212

The dashed part of the orbit path shows where the satellite is in the earth's shadow,  

DLR